Location: Cahas Mountain Overlook
(37.0833°N, 80.1000°W)
Time: 02:07:25
(UTC-04:00)

A-11 Canister half - Pass Details

Date: 01 December 2023
Orbit: 1515 x 1684 km, 47.2° (Epoch: 12 September)

Event Time Altitude Azimuth Distance (km) Brightness Sun altitude
Exits shadow 06:28:24 10° 302° (WNW) 3,922 10.5 -9.3°
Reaches altitude 10° 06:28:28 10° 302° (WNW) 3,902 10.5 -9.3°
Maximum altitude 06:38:29 66° 24° (NNE) 1,806 9.4 -7.5°
Drops below altitude 10° 06:48:35 10° 106° (ESE) 3,940 13.0 -5.6°
Sets 06:51:48 0° 109° (ESE) 4,921 14.5 -5.0°
